Time,TemperatureF,DewpointF,PressureIn,WindDirection,WindDirectionDegrees,WindSpeedMPH,WindSpeedGustMPH,Humidity,HourlyPrecipIn,Conditions,Clouds,dailyrainin,SoftwareType,DateUTC
2016-02-11 00:00:00,51.9,41.7,30.18,WNW,284,2.0,5.0,68,0.00,,---,0.00,VWS V14.01,2016-02-11 05:00:00,
2016-02-11 00:02:00,52.0,41.8,30.19,WNW,283,2.0,5.0,68,0.00,,---,0.00,VWS V14.01,2016-02-11 05:02:00,
2016-02-11 00:08:00,51.9,42.1,30.18,WNW,285,1.0,5.0,69,0.00,,---,0.00,VWS V14.01,2016-02-11 05:08:00,
2016-02-11 00:13:00,51.7,41.9,30.18,WNW,285,4.0,5.0,69,0.00,,---,0.00,VWS V14.01,2016-02-11 05:13:00,
2016-02-11 00:18:00,51.6,41.8,30.19,WNW,285,2.0,5.0,69,0.00,,---,0.00,VWS V14.01,2016-02-11 05:18:00,
2016-02-11 00:23:00,51.4,41.2,30.19,WNW,292,2.0,12.0,68,0.00,,---,0.00,VWS V14.01,2016-02-11 05:23:00,
2016-02-11 00:29:00,51.3,41.1,30.19,West,277,0.0,12.0,68,0.00,,---,0.00,VWS V14.01,2016-02-11 05:29:00,
2016-02-11 00:30:00,51.3,41.1,30.18,West,278,1.0,12.0,68,0.00,,---,0.00,VWS V14.01,2016-02-11 05:30:00,
2016-02-11 00:34:00,51.1,40.9,30.18,West,278,0.0,1.0,68,0.00,,---,0.00,VWS V14.01,2016-02-11 05:34:00,
2016-02-11 00:44:00,51.0,41.6,30.18,West,277,0.0,3.0,70,0.00,,---,0.00,VWS V14.01,2016-02-11 05:44:00,
2016-02-11 00:49:00,50.8,41.4,30.18,West,278,0.0,3.0,70,0.00,,---,0.00,VWS V14.01,2016-02-11 05:49:00,
2016-02-11 00:59:00,50.5,41.8,30.18,West,278,1.0,3.0,72,0.00,,---,0.00,VWS V14.01,2016-02-11 05:59:00,
2016-02-11 01:00:00,50.4,42.1,30.18,West,278,2.0,3.0,73,0.00,,---,0.00,VWS V14.01,2016-02-11 06:00:00,
2016-02-11 01:04:00,50.4,42.1,30.18,West,278,0.0,2.0,73,0.00,,---,0.00,VWS V14.01,2016-02-11 06:04:00,
2016-02-11 01:09:00,50.2,42.2,30.18,West,279,2.0,5.0,74,0.00,,---,0.00,VWS V14.01,2016-02-11 06:09:00,
2016-02-11 01:14:00,50.1,42.2,30.18,West,280,2.0,5.0,74,0.00,,---,0.00,VWS V14.01,2016-02-11 06:14:00,
2016-02-11 01:24:00,49.9,42.3,30.18,West,280,1.0,5.0,75,0.00,,---,0.00,VWS V14.01,2016-02-11 06:24:00,
2016-02-11 01:29:00,49.8,42.2,30.18,West,280,1.0,5.0,75,0.00,,---,0.00,VWS V14.01,2016-02-11 06:29:00,
2016-02-11 01:30:00,49.8,42.5,30.18,West,271,1.0,5.0,76,0.00,,---,0.00,VWS V14.01,2016-02-11 06:30:00,
2016-02-11 01:34:00,49.8,42.5,30.18,West,271,1.0,2.0,76,0.00,,---,0.00,VWS V14.01,2016-02-11 06:34:00,
2016-02-11 01:39:00,49.6,42.4,30.18,West,271,0.0,2.0,76,0.00,,---,0.00,VWS V14.01,2016-02-11 06:39:00,
2016-02-11 01:44:00,49.6,42.4,30.18,West,271,1.0,4.0,76,0.00,,---,0.00,VWS V14.01,2016-02-11 06:44:00,
2016-02-11 01:49:00,49.5,42.3,30.18,West,271,0.0,4.0,76,0.00,,---,0.00,VWS V14.01,2016-02-11 06:49:00,
2016-02-11 01:54:00,49.4,42.5,30.18,West,271,3.0,4.0,77,0.00,,---,0.00,VWS V14.01,2016-02-11 06:54:00,
2016-02-11 01:59:00,49.4,42.5,30.18,West,271,3.0,4.0,77,0.00,,---,0.00,VWS V14.01,2016-02-11 06:59:00,
2016-02-11 02:00:00,49.4,42.5,30.17,West,271,2.0,4.0,77,0.00,,---,0.00,VWS V14.01,2016-02-11 07:00:00,
2016-02-11 02:04:00,49.4,42.5,30.17,West,271,0.0,3.0,77,0.00,,---,0.00,VWS V14.01,2016-02-11 07:04:00,
2016-02-11 02:09:00,49.2,42.3,30.17,West,271,1.0,3.0,77,0.00,,---,0.00,VWS V14.01,2016-02-11 07:09:00,
2016-02-11 02:14:00,49.1,42.5,30.17,West,272,2.0,3.0,78,0.00,,---,0.00,VWS V14.01,2016-02-11 07:14:00,
2016-02-11 02:25:00,48.9,42.3,30.17,West,272,1.0,3.0,78,0.00,,---,0.00,VWS V14.01,2016-02-11 07:25:00,
2016-02-11 02:30:00,48.8,42.6,30.17,West,272,0.0,3.0,79,0.00,,---,0.00,VWS V14.01,2016-02-11 07:30:00,
2016-02-11 02:35:00,48.8,42.6,30.17,West,272,2.0,3.0,79,0.00,,---,0.00,VWS V14.01,2016-02-11 07:35:00,
2016-02-11 02:40:00,48.8,42.6,30.17,West,272,1.0,3.0,79,0.00,,---,0.00,VWS V14.01,2016-02-11 07:40:00,
2016-02-11 02:45:00,48.6,42.4,30.17,West,272,1.0,3.0,79,0.00,,---,0.00,VWS V14.01,2016-02-11 07:45:00,
2016-02-11 02:55:00,48.5,42.6,30.16,West,272,0.0,3.0,80,0.00,,---,0.00,VWS V14.01,2016-02-11 07:55:00,
2016-02-11 03:00:00,48.5,43.0,30.16,West,272,1.0,3.0,81,0.00,,---,0.00,VWS V14.01,2016-02-11 08:00:00,
2016-02-11 03:13:00,48.3,42.8,30.16,West,272,1.0,2.0,81,0.00,,---,0.00,VWS V14.01,2016-02-11 08:13:00,
2016-02-11 03:18:00,48.3,42.8,30.16,West,272,1.0,2.0,81,0.00,,---,0.00,VWS V14.01,2016-02-11 08:18:00,
2016-02-11 03:23:00,48.3,42.8,30.16,West,272,2.0,2.0,81,0.00,,---,0.00,VWS V14.01,2016-02-11 08:23:00,
2016-02-11 03:28:00,48.3,42.8,30.16,West,272,1.0,2.0,81,0.00,,---,0.00,VWS V14.01,2016-02-11 08:28:00,
2016-02-11 03:33:00,48.3,42.8,30.16,West,272,0.0,1.0,81,0.00,,---,0.00,VWS V14.01,2016-02-11 08:33:00,
2016-02-11 03:44:00,48.2,42.7,30.16,West,272,2.0,3.0,81,0.00,,---,0.00,VWS V14.01,2016-02-11 08:44:00,
2016-02-11 03:49:00,48.2,42.7,30.16,West,272,1.0,3.0,81,0.00,,---,0.00,VWS V14.01,2016-02-11 08:49:00,
2016-02-11 03:54:00,48.2,42.7,30.16,West,272,0.0,3.0,81,0.00,,---,0.00,VWS V14.01,2016-02-11 08:54:00,
2016-02-11 03:59:00,48.0,42.5,30.16,West,272,1.0,3.0,81,0.00,,---,0.00,VWS V14.01,2016-02-11 08:59:00,
2016-02-11 04:04:00,48.0,42.5,30.16,West,272,2.0,2.0,81,0.00,,---,0.00,VWS V14.01,2016-02-11 09:04:00,
2016-02-11 04:09:00,48.0,42.5,30.16,West,272,2.0,2.0,81,0.00,,---,0.00,VWS V14.01,2016-02-11 09:09:00,
2016-02-11 04:14:00,48.0,42.8,30.16,West,273,1.0,4.0,82,0.00,,---,0.00,VWS V14.01,2016-02-11 09:14:00,
2016-02-11 04:19:00,47.9,42.7,30.16,West,273,2.0,4.0,82,0.00,,---,0.00,VWS V14.01,2016-02-11 09:19:00,
2016-02-11 04:24:00,47.9,42.7,30.16,West,273,2.0,5.0,82,0.00,,---,0.00,VWS V14.01,2016-02-11 09:24:00,
2016-02-11 04:29:00,47.7,42.8,30.16,West,273,0.0,5.0,83,0.00,,---,0.00,VWS V14.01,2016-02-11 09:29:00,
2016-02-11 04:34:00,47.7,42.8,30.16,West,273,1.0,1.0,83,0.00,,---,0.00,VWS V14.01,2016-02-11 09:34:00,
2016-02-11 04:39:00,47.6,42.7,30.16,West,273,2.0,3.0,83,0.00,,---,0.00,VWS V14.01,2016-02-11 09:39:00,
2016-02-11 04:44:00,47.6,43.0,30.16,West,273,2.0,4.0,84,0.00,,---,0.00,VWS V14.01,2016-02-11 09:44:00,
2016-02-11 04:49:00,47.6,43.0,30.16,West,273,1.0,4.0,84,0.00,,---,0.00,VWS V14.01,2016-02-11 09:49:00,
2016-02-11 04:54:00,47.4,42.8,30.16,West,273,1.0,4.0,84,0.00,,---,0.00,VWS V14.01,2016-02-11 09:54:00,
2016-02-11 04:59:00,47.4,42.8,30.16,West,273,1.0,4.0,84,0.00,,---,0.00,VWS V14.01,2016-02-11 09:59:00,
2016-02-11 05:04:00,47.3,42.7,30.16,West,273,1.0,1.0,84,0.00,,---,0.00,VWS V14.01,2016-02-11 10:04:00,
2016-02-11 05:09:00,47.1,42.8,30.16,West,273,0.0,2.0,85,0.00,,---,0.00,VWS V14.01,2016-02-11 10:09:00,
2016-02-11 05:14:00,47.1,42.8,30.16,West,273,0.0,2.0,85,0.00,,---,0.00,VWS V14.01,2016-02-11 10:14:00,
2016-02-11 05:19:00,47.0,42.7,30.17,West,273,0.0,2.0,85,0.00,,---,0.00,VWS V14.01,2016-02-11 10:19:00,
2016-02-11 05:24:00,46.8,42.5,30.17,West,273,0.0,2.0,85,0.00,,---,0.00,VWS V14.01,2016-02-11 10:24:00,
2016-02-11 05:30:00,46.7,42.7,30.17,West,273,0.0,2.0,86,0.00,,---,0.00,VWS V14.01,2016-02-11 10:30:00,
2016-02-11 05:35:00,46.5,42.5,30.17,West,273,0.0,0.0,86,0.00,,---,0.00,VWS V14.01,2016-02-11 10:35:00,
2016-02-11 05:40:00,46.4,42.5,30.17,West,273,0.0,0.0,86,0.00,,---,0.00,VWS V14.01,2016-02-11 10:40:00,
2016-02-11 05:45:00,46.2,42.5,30.17,West,273,0.0,0.0,87,0.00,,---,0.00,VWS V14.01,2016-02-11 10:45:00,
2016-02-11 05:55:00,46.0,42.3,30.18,West,273,0.0,0.0,87,0.00,,---,0.00,VWS V14.01,2016-02-11 10:55:00,
2016-02-11 06:00:00,45.8,42.5,30.18,West,273,0.0,0.0,88,0.00,,---,0.00,VWS V14.01,2016-02-11 11:00:00,
2016-02-11 06:05:00,45.7,42.4,30.19,West,273,0.0,0.0,88,0.00,,---,0.00,VWS V14.01,2016-02-11 11:05:00,
2016-02-11 06:10:00,45.5,42.2,30.19,West,273,0.0,0.0,88,0.00,,---,0.00,VWS V14.01,2016-02-11 11:10:00,
2016-02-11 06:15:00,45.4,42.3,30.19,West,273,0.0,0.0,89,0.00,,---,0.00,VWS V14.01,2016-02-11 11:15:00,
2016-02-11 06:20:00,45.2,42.5,30.19,West,273,0.0,0.0,90,0.00,,---,0.00,VWS V14.01,2016-02-11 11:20:00,
2016-02-11 06:25:00,45.1,42.3,30.19,West,273,0.0,0.0,90,0.00,,---,0.00,VWS V14.01,2016-02-11 11:25:00,
2016-02-11 06:30:00,44.9,42.2,30.19,West,273,0.0,0.0,90,0.00,,---,0.00,VWS V14.01,2016-02-11 11:30:00,
2016-02-11 06:35:00,44.9,42.4,30.20,West,273,0.0,0.0,91,0.00,,---,0.00,VWS V14.01,2016-02-11 11:35:00,
2016-02-11 06:40:00,44.8,42.6,30.20,West,273,0.0,0.0,92,0.00,,---,0.00,VWS V14.01,2016-02-11 11:40:00,
2016-02-11 06:45:00,44.8,42.6,30.20,West,273,0.0,0.0,92,0.00,,---,0.00,VWS V14.01,2016-02-11 11:45:00,
2016-02-11 06:55:00,44.6,42.7,30.20,West,273,0.0,0.0,93,0.00,,---,0.00,VWS V14.01,2016-02-11 11:55:00,
2016-02-11 07:00:00,44.5,42.6,30.20,West,273,0.0,0.0,93,0.00,,---,0.00,VWS V14.01,2016-02-11 12:00:00,
2016-02-11 07:05:00,44.5,42.6,30.20,West,273,0.0,0.0,93,0.00,,---,0.00,VWS V14.01,2016-02-11 12:05:00,
2016-02-11 07:10:00,44.3,42.4,30.20,West,273,0.0,0.0,93,0.00,,---,0.00,VWS V14.01,2016-02-11 12:10:00,
2016-02-11 07:16:00,44.2,42.3,30.20,West,273,0.0,0.0,93,0.00,,---,0.00,VWS V14.01,2016-02-11 12:16:00,
2016-02-11 07:21:00,44.2,42.3,30.22,West,273,0.0,0.0,93,0.00,,---,0.00,VWS V14.01,2016-02-11 12:21:00,
2016-02-11 07:26:00,44.2,42.6,30.22,West,273,0.0,1.0,94,0.00,,---,0.00,VWS V14.01,2016-02-11 12:26:00,
2016-02-11 07:31:00,44.2,42.9,30.22,West,273,3.0,3.0,95,0.00,,---,0.00,VWS V14.01,2016-02-11 12:31:00,
2016-02-11 07:36:00,44.5,43.4,30.22,West,273,3.0,4.0,96,0.00,,---,0.00,VWS V14.01,2016-02-11 12:36:00,
2016-02-11 07:41:00,44.8,43.7,30.22,West,275,4.0,4.0,96,0.00,,---,0.00,VWS V14.01,2016-02-11 12:41:00,
2016-02-11 07:46:00,45.1,44.3,30.22,West,275,1.0,4.0,97,0.00,,---,0.00,VWS V14.01,2016-02-11 12:46:00,
2016-02-11 07:51:00,45.5,44.7,30.22,West,275,2.0,4.0,97,0.00,,---,0.00,VWS V14.01,2016-02-11 12:51:00,
2016-02-11 07:56:00,46.0,45.2,30.22,West,279,2.0,6.0,97,0.00,,---,0.00,VWS V14.01,2016-02-11 12:56:00,
2016-02-11 08:01:00,46.2,45.4,30.22,West,279,2.0,6.0,97,0.00,,---,0.00,VWS V14.01,2016-02-11 13:01:00,
2016-02-11 08:06:00,46.5,45.7,30.23,WNW,282,2.0,6.0,97,0.00,,---,0.00,VWS V14.01,2016-02-11 13:06:00,
2016-02-11 08:11:00,46.8,45.7,30.23,NNW,339,4.0,7.0,96,0.00,,---,0.00,VWS V14.01,2016-02-11 13:11:00,
2016-02-11 08:16:00,47.1,45.7,30.23,NNW,340,4.0,7.0,95,0.00,,---,0.00,VWS V14.01,2016-02-11 13:16:00,
2016-02-11 08:21:00,47.4,45.5,30.23,NNW,347,4.0,8.0,93,0.00,,---,0.00,VWS V14.01,2016-02-11 13:21:00,
2016-02-11 08:26:00,47.7,45.5,30.23,North,350,5.0,8.0,92,0.00,,---,0.00,VWS V14.01,2016-02-11 13:26:00,
2016-02-11 08:36:00,48.3,45.2,30.24,NNW,337,6.0,7.0,89,0.00,,---,0.00,VWS V14.01,2016-02-11 13:36:00,
2016-02-11 08:41:00,48.6,44.9,30.24,NNW,340,8.0,9.0,87,0.00,,---,0.00,VWS V14.01,2016-02-11 13:41:00,
2016-02-11 08:46:00,48.9,44.3,30.24,NNW,333,5.0,10.0,84,0.00,,---,0.00,VWS V14.01,2016-02-11 13:46:00,
2016-02-11 08:52:00,49.2,44.0,30.25,NNW,344,4.0,10.0,82,0.00,,---,0.00,VWS V14.01,2016-02-11 13:52:00,
2016-02-11 08:57:00,49.5,43.9,30.25,NNW,344,5.0,10.0,81,0.00,,---,0.00,VWS V14.01,2016-02-11 13:57:00,
2016-02-11 09:02:00,49.8,43.9,30.25,North,5,3.0,10.0,80,0.00,,---,0.00,VWS V14.01,2016-02-11 14:02:00,
2016-02-11 09:07:00,50.1,43.5,30.25,NNW,338,6.0,6.0,78,0.00,,---,0.00,VWS V14.01,2016-02-11 14:07:00,
2016-02-11 09:12:00,50.2,43.3,30.25,NNW,340,3.0,6.0,77,0.00,,---,0.00,VWS V14.01,2016-02-11 14:12:00,
2016-02-11 09:17:00,50.7,43.8,30.25,NNW,340,3.0,6.0,77,0.00,,---,0.00,VWS V14.01,2016-02-11 14:17:00,
2016-02-11 09:22:00,51.3,43.7,30.25,North,355,1.0,7.0,75,0.00,,---,0.00,VWS V14.01,2016-02-11 14:22:00,
2016-02-11 09:27:00,52.0,43.6,30.25,NNW,344,5.0,7.0,73,0.00,,---,0.00,VWS V14.01,2016-02-11 14:27:00,
2016-02-11 09:32:00,52.8,43.7,30.25,NNW,342,6.0,7.0,71,0.00,,---,0.00,VWS V14.01,2016-02-11 14:32:00,
2016-02-11 09:37:00,53.3,43.0,30.25,NNW,341,3.0,6.0,68,0.00,,---,0.00,VWS V14.01,2016-02-11 14:37:00,
2016-02-11 09:42:00,54.1,43.0,30.25,NNW,339,2.0,10.0,66,0.00,,---,0.00,VWS V14.01,2016-02-11 14:42:00,
2016-02-11 09:47:00,54.5,41.8,30.26,NNW,338,5.0,10.0,62,0.00,,---,0.00,VWS V14.01,2016-02-11 14:47:00,
2016-02-11 09:52:00,55.0,41.4,30.26,NNW,345,3.0,10.0,60,0.00,,---,0.00,VWS V14.01,2016-02-11 14:52:00,
2016-02-11 10:02:00,55.7,39.8,30.26,NNW,340,2.0,10.0,55,0.00,,---,0.00,VWS V14.01,2016-02-11 15:02:00,
2016-02-11 10:07:00,55.7,38.4,30.26,NNW,347,6.0,10.0,52,0.00,,---,0.00,VWS V14.01,2016-02-11 15:07:00,
2016-02-11 10:12:00,55.9,38.5,30.26,NNW,341,4.0,10.0,52,0.00,,---,0.00,VWS V14.01,2016-02-11 15:12:00,
2016-02-11 10:17:00,56.0,39.6,30.26,NNW,341,3.0,10.0,54,0.00,,---,0.00,VWS V14.01,2016-02-11 15:17:00,
2016-02-11 10:22:00,56.5,40.1,30.26,NNW,342,4.0,10.0,54,0.00,,---,0.00,VWS V14.01,2016-02-11 15:22:00,
2016-02-11 10:27:00,56.9,40.0,30.26,NNW,342,0.0,10.0,53,0.00,,---,0.00,VWS V14.01,2016-02-11 15:27:00,
2016-02-11 10:32:00,57.8,38.3,30.26,NNW,336,4.0,10.0,48,0.00,,---,0.00,VWS V14.01,2016-02-11 15:32:00,
2016-02-11 10:38:00,58.6,39.0,30.26,NNW,338,2.0,6.0,48,0.00,,---,0.00,VWS V14.01,2016-02-11 15:38:00,
2016-02-11 10:43:00,59.3,39.1,30.26,NNW,340,1.0,6.0,47,0.00,,---,0.00,VWS V14.01,2016-02-11 15:43:00,
2016-02-11 10:48:00,60.1,39.8,30.26,NNW,346,4.0,6.0,47,0.00,,---,0.00,VWS V14.01,2016-02-11 15:48:00,
2016-02-11 10:53:00,60.5,36.7,30.26,NNE,24,1.0,6.0,41,0.00,,---,0.00,VWS V14.01,2016-02-11 15:53:00,
2016-02-11 10:58:00,61.2,37.3,30.26,NE,46,2.0,6.0,41,0.00,,---,0.00,VWS V14.01,2016-02-11 15:58:00,
2016-02-11 11:03:00,61.6,35.8,30.26,NE,37,1.0,6.0,38,0.00,,---,0.00,VWS V14.01,2016-02-11 16:03:00,
2016-02-11 11:08:00,62.3,35.7,30.26,NNW,333,4.0,8.0,37,0.00,,---,0.00,VWS V14.01,2016-02-11 16:08:00,
2016-02-11 11:13:00,62.3,35.7,30.26,NNW,336,8.0,8.0,37,0.00,,---,0.00,VWS V14.01,2016-02-11 16:13:00,
2016-02-11 11:18:00,62.4,35.8,30.26,NNW,337,2.0,8.0,37,0.00,,---,0.00,VWS V14.01,2016-02-11 16:18:00,
2016-02-11 11:23:00,62.4,35.8,30.26,NNW,338,1.0,9.0,37,0.00,,---,0.00,VWS V14.01,2016-02-11 16:23:00,
2016-02-11 11:28:00,62.6,36.0,30.26,NNW,338,4.0,9.0,37,0.00,,---,0.00,VWS V14.01,2016-02-11 16:28:00,
2016-02-11 11:33:00,62.7,35.4,30.25,NNW,338,4.0,9.0,36,0.00,,---,0.00,VWS V14.01,2016-02-11 16:33:00,
2016-02-11 11:38:00,63.2,36.5,30.25,NNW,340,6.0,10.0,37,0.00,,---,0.00,VWS V14.01,2016-02-11 16:38:00,
2016-02-11 11:48:00,64.3,38.2,30.25,NNW,339,2.0,10.0,38,0.00,,---,0.00,VWS V14.01,2016-02-11 16:48:00,
2016-02-11 11:53:00,65.3,37.7,30.25,NNW,340,3.0,10.0,36,0.00,,---,0.00,VWS V14.01,2016-02-11 16:53:00,
2016-02-11 11:58:00,66.1,36.2,30.25,NNW,336,2.0,10.0,33,0.00,,---,0.00,VWS V14.01,2016-02-11 16:58:00,